TimePDT,TemperatureF,Dew PointF,Humidity,Sea Level PressureIn,VisibilityMPH,Wind Direction,Wind SpeedMPH,Gust SpeedMPH,PrecipitationIn,Events,Conditions,WindDirDegrees,DateUTC
12:15 AM,53.6,44.6,72,30.02,10.0,SSW,6.9,-,N/A,,Overcast,200,2013-03-28 07:15:00
12:35 AM,53.6,44.6,72,30.02,10.0,SW,5.8,-,N/A,,Overcast,230,2013-03-28 07:35:00
12:55 AM,53.6,44.6,72,30.03,10.0,SSW,4.6,-,N/A,,Overcast,210,2013-03-28 07:55:00
1:15 AM,53.6,44.6,72,30.03,10.0,South,5.8,-,N/A,,Overcast,190,2013-03-28 08:15:00
1:35 AM,51.8,44.6,76,30.03,10.0,SSW,4.6,-,N/A,,Mostly Cloudy,210,2013-03-28 08:35:00
1:55 AM,50.0,44.6,82,30.04,10.0,Calm,Calm,-,N/A,,Overcast,0,2013-03-28 08:55:00
2:15 AM,50.0,44.6,82,30.04,10.0,Calm,Calm,-,N/A,,Overcast,0,2013-03-28 09:15:00
2:35 AM,48.2,44.6,87,30.04,10.0,Calm,Calm,-,N/A,,Overcast,0,2013-03-28 09:35:00
2:55 AM,50.0,44.6,82,30.04,10.0,Calm,Calm,-,N/A,,Overcast,0,2013-03-28 09:55:00
3:15 AM,48.2,44.6,87,30.04,10.0,Calm,Calm,-,N/A,,Overcast,0,2013-03-28 10:15:00
3:35 AM,48.2,44.6,87,30.04,10.0,WSW,3.5,-,N/A,,Overcast,240,2013-03-28 10:35:00
3:55 AM,50.0,42.8,76,30.04,10.0,SW,3.5,-,N/A,,Overcast,230,2013-03-28 10:55:00
4:15 AM,50.0,42.8,76,30.04,10.0,SSW,3.5,-,N/A,,Overcast,210,2013-03-28 11:15:00
4:30 AM,50.0,42.8,76,30.04,10.0,South,5.8,-,N/A,,Overcast,170,2013-03-28 11:30:00
4:55 AM,50.0,42.8,76,30.04,10.0,South,5.8,-,N/A,,Overcast,180,2013-03-28 11:55:00
5:15 AM,50.0,44.6,82,30.04,10.0,SSW,4.6,-,N/A,,Overcast,210,2013-03-28 12:15:00
5:35 AM,50.0,44.6,82,30.04,10.0,SW,3.5,-,N/A,,Overcast,230,2013-03-28 12:35:00
5:55 AM,48.2,44.6,87,30.03,5.0,South,3.5,-,0.01,,Overcast,180,2013-03-28 12:55:00
6:15 AM,48.2,44.6,87,30.04,4.0,SSW,4.6,-,0.03,,Overcast,210,2013-03-28 13:15:00
6:35 AM,48.2,44.6,87,30.04,8.0,South,4.6,-,0.03,,Overcast,190,2013-03-28 13:35:00
6:55 AM,48.2,44.6,87,30.05,5.0,Calm,Calm,-,0.05,,Overcast,0,2013-03-28 13:55:00
7:15 AM,46.4,44.6,93,30.05,10.0,Calm,Calm,-,N/A,,Overcast,0,2013-03-28 14:15:00
7:35 AM,46.4,46.4,100,30.06,6.0,Calm,Calm,-,0.02,,Overcast,0,2013-03-28 14:35:00
7:55 AM,46.4,46.4,100,30.06,5.0,SSW,5.8,-,0.02,,Overcast,200,2013-03-28 14:55:00
8:15 AM,48.2,44.6,87,30.07,10.0,South,10.4,-,N/A,,Overcast,180,2013-03-28 15:15:00
8:35 AM,48.2,44.6,87,30.07,5.0,South,6.9,-,N/A,,Overcast,170,2013-03-28 15:35:00
8:55 AM,48.2,44.6,87,30.08,5.0,South,8.1,-,N/A,,Overcast,180,2013-03-28 15:55:00
9:15 AM,48.2,44.6,87,30.09,7.0,SW,8.1,-,N/A,,Overcast,220,2013-03-28 16:15:00
9:35 AM,48.2,44.6,87,30.09,10.0,South,4.6,-,0.01,,Overcast,190,2013-03-28 16:35:00
9:55 AM,48.2,42.8,82,30.10,10.0,South,5.8,-,0.01,,Overcast,190,2013-03-28 16:55:00
10:15 AM,48.2,42.8,82,30.10,10.0,South,11.5,16.1,N/A,,Overcast,190,2013-03-28 17:15:00
10:35 AM,48.2,42.8,82,30.11,10.0,SW,9.2,17.3,N/A,,Overcast,220,2013-03-28 17:35:00
10:55 AM,50.0,41.0,71,30.11,10.0,South,5.8,-,N/A,,Overcast,190,2013-03-28 17:55:00
11:15 AM,50.0,41.0,71,30.12,10.0,SSW,9.2,-,N/A,,Overcast,200,2013-03-28 18:15:00
11:35 AM,50.0,42.8,76,30.12,10.0,South,8.1,-,N/A,,Overcast,180,2013-03-28 18:35:00
11:55 AM,50.0,41.0,71,30.12,10.0,South,8.1,-,N/A,,Overcast,190,2013-03-28 18:55:00
12:15 PM,50.0,41.0,71,30.13,10.0,South,9.2,-,N/A,,Overcast,180,2013-03-28 19:15:00
12:35 PM,48.2,44.6,87,30.13,3.0,SSW,5.8,-,N/A,,Overcast,200,2013-03-28 19:35:00
12:55 PM,48.2,44.6,87,30.14,5.0,South,5.8,-,N/A,,Overcast,170,2013-03-28 19:55:00
1:15 PM,50.0,44.6,82,30.13,10.0,Calm,Calm,-,N/A,,Overcast,0,2013-03-28 20:15:00
1:35 PM,51.8,44.6,76,30.13,10.0,Calm,Calm,-,N/A,,Overcast,0,2013-03-28 20:35:00
1:55 PM,51.8,44.6,76,30.13,10.0,Calm,Calm,-,N/A,,Overcast,0,2013-03-28 20:55:00
2:15 PM,51.8,44.6,76,30.13,10.0,Calm,Calm,-,N/A,,Overcast,0,2013-03-28 21:15:00
2:35 PM,53.6,42.8,67,30.12,10.0,SE,3.5,-,N/A,,Overcast,130,2013-03-28 21:35:00
2:55 PM,53.6,44.6,72,30.13,10.0,ENE,3.5,-,N/A,,Overcast,70,2013-03-28 21:55:00
3:15 PM,53.6,44.6,72,30.12,10.0,ENE,3.5,-,N/A,,Mostly Cloudy,70,2013-03-28 22:15:00
3:35 PM,53.6,42.8,67,30.12,10.0,Calm,Calm,-,N/A,,Scattered Clouds,0,2013-03-28 22:35:00
3:55 PM,53.6,42.8,67,30.12,10.0,Calm,Calm,-,N/A,,Mostly Cloudy,0,2013-03-28 22:55:00
4:15 PM,53.6,42.8,67,30.12,10.0,NE,3.5,-,N/A,,Overcast,40,2013-03-28 23:15:00
4:30 PM,53.6,44.6,72,30.12,10.0,NNW,3.5,-,N/A,,Overcast,340,2013-03-28 23:30:00
4:55 PM,53.6,42.8,67,30.12,10.0,Calm,Calm,-,N/A,,Overcast,0,2013-03-28 23:55:00
5:15 PM,53.6,44.6,72,30.12,10.0,WNW,3.5,-,N/A,,Overcast,300,2013-03-29 00:15:00
5:35 PM,53.6,44.6,72,30.12,10.0,West,3.5,-,N/A,,Overcast,260,2013-03-29 00:35:00
5:55 PM,53.6,44.6,72,30.13,10.0,WNW,3.5,-,N/A,,Overcast,300,2013-03-29 00:55:00
6:15 PM,53.6,46.4,77,30.13,10.0,Calm,Calm,-,N/A,,Overcast,0,2013-03-29 01:15:00
6:35 PM,51.8,46.4,82,30.13,8.0,Calm,Calm,-,N/A,,Overcast,0,2013-03-29 01:35:00
6:55 PM,50.0,46.4,87,30.15,10.0,Calm,Calm,-,N/A,,Overcast,0,2013-03-29 01:55:00
7:15 PM,50.0,46.4,87,30.15,10.0,Calm,Calm,-,N/A,,Overcast,0,2013-03-29 02:15:00
7:35 PM,50.0,48.2,94,30.15,10.0,Calm,Calm,-,N/A,,Overcast,0,2013-03-29 02:35:00
7:55 PM,50.0,48.2,94,30.15,10.0,WNW,4.6,-,N/A,,Overcast,290,2013-03-29 02:55:00
8:15 PM,48.2,46.4,93,30.16,10.0,West,3.5,-,N/A,,Overcast,280,2013-03-29 03:15:00
8:35 PM,48.2,46.4,93,30.17,10.0,North,3.5,-,N/A,,Overcast,350,2013-03-29 03:35:00
8:55 PM,48.2,46.4,93,30.17,10.0,Calm,Calm,-,N/A,,Overcast,0,2013-03-29 03:55:00
9:15 PM,48.2,46.4,93,30.17,10.0,Calm,Calm,-,N/A,,Overcast,0,2013-03-29 04:15:00
9:35 PM,48.2,46.4,93,30.18,10.0,Calm,Calm,-,N/A,,Overcast,0,2013-03-29 04:35:00
9:55 PM,48.2,46.4,93,30.19,10.0,Calm,Calm,-,N/A,,Overcast,0,2013-03-29 04:55:00
10:15 PM,48.2,46.4,93,30.19,10.0,Calm,Calm,-,N/A,,Overcast,0,2013-03-29 05:15:00
10:35 PM,46.4,46.4,100,30.20,10.0,WNW,3.5,-,N/A,,Overcast,290,2013-03-29 05:35:00
10:55 PM,46.4,46.4,100,30.20,10.0,Calm,Calm,-,N/A,,Overcast,0,2013-03-29 05:55:00
11:15 PM,46.4,46.4,100,30.20,10.0,Calm,Calm,-,N/A,,Overcast,0,2013-03-29 06:15:00
11:35 PM,46.4,46.4,100,30.20,10.0,Calm,Calm,-,N/A,,Overcast,0,2013-03-29 06:35:00
11:55 PM,46.4,44.6,93,30.20,10.0,West,3.5,-,N/A,,Overcast,260,2013-03-29 06:55:00